Regional Weather Roundup
Issued by NWS Newport/Morehead, NC

Current Version | Previous Version | Text Only | Print | Product List | Glossary Off
Versions: 1 2 3 4 5 6 7 8 9 10 11 12 13 14 15 16 17 18 19 20 21 22 23 24 25 26 27 28 29 30 31 32 33 34 35 36 37 38 39 40 41 42 43 44 45 46 47 48 49 50
105 ASUS42 KMHX 220725 RWRMHX WEATHER ROUNDUP FOR EASTERN NORTH CAROLINA NATIONAL WEATHER SERVICE NEWPORT/MOREHEAD CITY NC 200 AM EST MON JAN 22 2018 NOTE: "FAIR" INDICATES FEW OR NO CLOUDS BELOW 12,000 FEET WITH NO SIGNIFICANT WEATHER AND/OR OBSTRUCTIONS TO VISIBILITY NCZ015>017-031-032-045>047-102-103-220800- NORTH COAST CITY SKY/WX TMP DP RH WIND PRES REMARKS EDENTON FAIR 40 37 89 S3 30.23S ELIZABETH CITY FAIR 38 38 100 CALM 30.23S KITTY HAWK FAIR 44 36 73 CALM 30.22S MANTEO FAIR 37 36 94 CALM 30.24R $$ NCZ045>047-081-094-103-104-220800- CENTRAL COAST CITY SKY/WX TMP DP RH WIND PRES REMARKS FRISCO NOT AVBL $$ NCZ095-097-098-100-101-220800- SOUTHERN COAST CITY SKY/WX TMP DP RH WIND PRES REMARKS BEAUFORT FAIR 40 40 100 CALM 30.24S CEDAR ISLAND NOT AVBL JACKSONVILLE FAIR 39 37 92 SE3 30.22F PINEY ISLAND NOT AVBL WILMINGTON FAIR 38 36 92 CALM 30.22F $$ NCZ011>013-027>030-043-044-078>080-089-090>093-098-220800- COASTAL PLAIN CITY SKY/WX TMP DP RH WIND PRES REMARKS AHOSKIE FAIR 40 37 87 CALM 30.21S CLINTON FAIR 40 40 97 CALM 30.22F ELIZABETHTOWN NOT AVBL GOLDSBORO FAIR 39 37 90 CALM 30.20S GREENVILLE FAIR 37 37 100 CALM 30.23S HAVELOCK NOT AVBL KENANSVILLE FAIR 37 36 93 CALM 30.22S KINSTON FAIR 38 37 96 CALM 30.22S NEW BERN FAIR 36 35 96 CALM 30.24S RICHLANDS FAIR 38 36 92 CALM 30.23F ROCKY MOUNT NOT AVBL WASHINGTON FAIR 38 36 91 CALM 30.22F WHITEVILLE FAIR 40 37 87 CALM 30.21S $$ AMZ130-135-150-152-154-156-158-170-250-252-270-ANZ085-086-088-633-658-670-220800- MARINE OBSERVATIONS STATION/POSITION TIME TEMP WIND PRES WAVE SWELL AIR SEA DIR/SP/G HT/PER HT/PER (UTC) (F) (DEG/KT/KT) (MB) (FT/S) (FT/S) CHESAPEAKE LIGHT NOT AVBL 64 E VA BEACH 0650 54 58 260/ 8/ 8 1023.7 1/ 9 2/ 9 DUCK 0700 45 40 230/ 4/ 5 1023.1 2 E DUCK 0700 41 N/A 1/11 OREGON INLET 0700 43 43 300/ 5/ 5 1023.7 13E OREGON INLT 0648 41 N/A 1/11 2/11 HATTERAS CG 0700 46 50 310/ 4/ 4 1023.5 DIAMOND BUOY 0710 61 72 270/ 4/ 6 1023.9 CAPE LOOKOUT 0700 CALM 1024.1 BEAUFORT LAB 0700 43 47 10/ 2/ 3 1023.9 30 SE NEW RVR IN 0708 56 60 320/ 4/ 6 1023.9 30 SE NEW RVR IN 0700 60 N/A 1/11 27 SE WRIGHTSVLE 0708 56 60 320/ 6/ 8 1023.4 5 SE WRIGHTSVLE 0708 47 46 50/ 2/ 4 1023.1 225 S CAPE HAT 0650 65 70 100/ 4/ 6 1023.2 2/10 2/10 41 SE CHARLESTON 0710 66 70 190/ 10/ 12 1022.2 $$

USA.gov is the U.S. government's official web portal to all federal, state and local government web resources and services.